Location: Julian California
(33.0790°N, 116.6010°W)
Time: 13:49:26
(UTC-08:00)

CZ-2C R/B - Pass Details

Date: 12 July 2018
Orbit: 784 x 871 km, 98.3° (Epoch: 18 November)

Event Time Altitude Azimuth Distance (km) Brightness Sun altitude
Rises 23:45:00 0° 0° (N) 3,297 6.7 -32.8°
Reaches altitude 10° 23:47:33 10° 351° (N) 2,356 5.8 -33.0°
Enters shadow 23:51:51 31° 295° (WNW) 1,341 4.0 -33.2°
